Date,TemperatureHighF,TemperatureAvgF,TemperatureLowF,DewpointHighF,DewpointAvgF,DewpointLowF,HumidityHigh,HumidityAvg,HumidityLow,PressureMaxIn,PressureMinIn,WindSpeedMaxMPH,WindSpeedAvgMPH,GustSpeedMaxMPH,PrecipitationSumIn
2013-1-1,12,2,-2,5,-4,-13,82,75,57,0.00,40.00,12,5,23,0.00
2013-1-2,15,3,-4,-6,-9,-13,80,58,35,0.00,40.00,14,5,25,0.11
2013-1-3,18,5,-5,-9,-19,-31,77,37,13,0.00,40.00,10,5,18,0.01
2013-1-4,28,17,9,-2,-9,-28,47,32,14,0.00,40.00,9,5,18,0.01
2013-1-5,32,22,14,-5,-14,-25,42,21,11,0.00,40.00,11,8,27,0.00
2013-1-6,36,25,19,-8,-25,-66,25,12,1,0.00,40.00,18,9,39,0.00
2013-1-7,34,25,21,3,-9,-20,44,22,14,0.00,40.00,15,7,24,0.00
2013-1-8,36,26,22,5,-4,-20,44,27,14,0.00,40.00,13,7,24,0.00
2013-1-9,38,29,23,-1,-7,-15,30,20,15,0.00,40.00,6,4,16,0.00
2013-1-10,35,25,16,10,-8,-21,75,26,10,0.00,40.00,24,13,44,0.00
2013-1-11,15,4,-9,12,-2,-16,88,74,43,0.00,40.00,23,17,58,0.00
2013-1-12,6,-7,-13,-16,-20,-24,72,54,24,0.00,40.00,17,6,36,0.00
2013-1-13,-1,-9,-15,-13,-18,-22,74,65,44,0.00,40.00,9,5,23,0.00
2013-1-14,0,-5,-8,-7,-12,-16,74,73,71,0.00,40.00,9,6,19,0.00
2013-1-15,11,0,-11,5,-9,-22,75,64,42,0.00,40.00,12,5,21,0.00
2013-1-16,34,21,11,13,10,6,80,63,40,0.00,40.00,6,4,18,0.05
2013-1-17,37,24,15,12,7,-3,77,49,32,0.00,40.00,7,3,14,0.01
2013-1-18,36,26,20,0,-13,-20,40,18,10,0.00,40.00,11,7,21,0.00
2013-1-19,39,28,21,-8,-16,-26,25,14,8,0.00,40.00,14,7,30,0.00
2013-1-20,38,28,18,-3,-19,-40,37,15,3,0.00,40.00,13,8,30,0.00
2013-1-21,35,28,20,1,-5,-26,31,23,9,0.00,40.00,13,8,28,0.00
2013-1-22,41,34,27,-20,-30,-40,8,5,3,0.00,40.00,16,11,34,0.00
2013-1-23,47,37,30,-16,-30,-48,10,5,2,0.00,40.00,10,7,18,0.00
2013-1-24,42,32,26,18,1,-23,71,33,8,0.00,40.00,20,8,34,0.00
2013-1-25,36,28,23,23,20,17,89,71,57,0.00,40.00,11,5,20,0.00
2013-1-26,36,28,23,29,22,12,97,79,59,0.00,40.00,18,8,36,0.00
2013-1-27,35,27,20,23,17,5,95,69,46,0.00,40.00,23,10,45,0.13
2013-1-28,23,19,10,21,15,6,90,83,69,0.00,40.00,20,16,43,0.02
2013-1-29,9,3,-3,6,-2,-11,87,79,75,0.00,40.00,10,5,26,0.00
2013-1-30,16,4,-8,-3,-8,-17,75,59,41,0.00,40.00,23,14,54,0.00
2013-1-31,26,20,11,3,-3,-10,60,36,25,0.00,40.00,20,13,41,0.02
2013-2-1,28,20,15,1,-2,-6,49,38,25,0.00,40.00,19,13,40,0.02
2013-2-2,35,24,17,-6,-12,-24,35,20,8,0.00,40.00,14,7,28,0.00
2013-2-3,35,25,21,7,-7,-30,47,26,6,0.00,40.00,13,8,29,0.01
2013-2-4,37,25,17,1,-7,-16,37,25,14,0.00,40.00,15,8,34,0.01
2013-2-5,42,29,23,5,-2,-14,41,27,10,0.00,40.00,12,8,27,0.00
2013-2-6,37,26,19,18,6,-4,92,46,23,0.00,40.00,12,4,25,0.00
2013-2-7,30,18,9,17,6,-7,91,63,32,0.00,40.00,10,5,21,0.10
2013-2-8,30,20,15,12,8,2,78,62,32,0.00,40.00,22,13,42,0.01
2013-2-9,21,13,5,11,4,-4,85,69,36,0.00,40.00,14,10,31,0.00
2013-2-10,15,8,2,3,-4,-12,83,63,32,0.00,40.00,18,8,32,0.01
2013-2-11,9,4,0,4,-1,-5,82,79,78,0.00,40.00,9,5,22,0.01
2013-2-12,17,6,-2,0,-5,-9,78,61,38,0.00,40.00,10,6,20,0.23
2013-2-13,32,19,11,4,-1,-14,64,43,15,0.00,40.00,12,8,31,0.01
2013-2-14,21,13,5,13,2,-14,87,63,25,0.00,40.00,9,5,21,0.03
2013-2-15,18,9,4,2,-6,-12,82,52,28,0.00,40.00,15,11,31,0.03
2013-2-16,33,24,12,1,-5,-12,52,29,19,0.00,40.00,17,11,32,0.01
2013-2-17,34,23,15,-3,-13,-27,43,21,9,0.00,40.00,17,14,32,0.01
2013-2-18,21,12,5,5,-9,-30,83,43,17,0.00,40.00,16,8,31,0.03
2013-2-19,30,20,9,1,-9,-42,51,29,5,0.00,40.00,13,8,28,0.01
2013-2-20,27,16,10,14,11,5,90,81,57,0.00,40.00,11,5,23,0.04
2013-2-21,16,10,5,10,6,0,85,81,75,0.00,40.00,9,6,22,0.03
2013-2-22,17,9,4,7,2,-1,85,74,60,0.00,40.00,7,4,12,0.03
2013-2-23,29,15,4,11,2,-10,87,59,37,0.00,40.00,13,9,31,0.11
2013-2-24,12,8,1,9,3,-4,86,82,79,0.00,40.00,8,6,28,0.01
2013-2-25,22,10,0,7,-1,-8,79,62,37,0.00,40.00,9,6,18,0.03
2013-2-26,20,10,3,6,-1,-8,81,64,36,0.00,40.00,10,4,17,0.02
2013-2-27,18,6,-2,3,-4,-12,79,64,43,0.00,40.00,9,5,23,0.00
2013-2-28,23,11,0,0,-7,-16,62,44,28,0.00,40.00,16,8,31,0.00
2013-3-1,28,18,9,8,4,-2,67,55,40,0.00,40.00,16,11,36,0.03
2013-3-2,39,29,18,9,7,5,63,42,26,0.00,40.00,12,8,23,0.17
2013-3-3,42,30,22,16,8,-1,75,41,22,0.00,40.00,19,11,38,0.01
2013-3-4,32,20,8,19,12,-13,89,73,37,0.00,40.00,17,11,37,0.04
2013-3-5,40,26,10,-5,-21,-37,33,13,5,0.00,40.00,19,11,43,0.05
2013-3-6,41,29,20,10,5,-4,49,36,25,0.00,40.00,19,13,43,0.03
2013-3-7,42,31,24,6,1,-3,39,28,18,0.00,40.00,19,11,43,0.00
2013-3-8,38,28,19,18,11,5,91,50,31,0.00,40.00,20,9,37,0.00
2013-3-9,19,14,6,15,11,1,93,86,81,0.00,40.00,10,5,22,0.00
2013-3-10,22,13,1,17,8,-4,86,81,78,0.00,40.00,10,6,25,0.00
2013-3-11,35,24,15,10,5,-3,76,45,32,0.00,40.00,18,11,38,0.02
2013-3-12,35,25,16,15,10,6,76,54,36,0.00,40.00,12,10,29,0.07
2013-3-13,44,32,24,15,8,0,53,37,24,0.00,40.00,15,9,28,0.31
2013-3-14,48,35,27,14,7,2,43,32,22,0.00,40.00,12,9,29,0.01
2013-3-15,49,38,32,11,5,-4,32,25,19,0.00,40.00,15,10,31,0.00
2013-3-16,40,31,23,24,17,9,95,59,35,0.00,40.00,12,6,23,0.00
2013-3-17,31,23,18,21,12,3,91,64,41,0.00,40.00,25,15,45,0.03
2013-3-18,28,19,12,3,-3,-9,54,37,25,0.00,40.00,24,18,48,0.01
2013-3-19,30,22,16,5,-2,-15,52,35,23,0.00,40.00,27,12,48,0.00
2013-3-20,37,25,15,16,-1,-21,72,34,18,0.00,40.00,16,10,31,0.00
2013-3-21,33,25,15,21,12,0,82,60,34,0.00,40.00,20,13,42,0.00
2013-3-22,31,19,10,10,3,-5,89,52,29,0.00,40.00,14,8,34,0.00
2013-3-23,11,4,-4,9,-2,-11,90,77,69,0.00,40.00,7,4,16,0.00
2013-3-24,12,1,-5,-1,-7,-14,78,67,49,0.00,40.00,13,7,32,0.00
2013-3-25,23,8,-6,-2,-10,-15,76,46,23,0.00,40.00,11,7,22,0.13
2013-3-26,37,23,10,11,4,-12,63,44,31,0.00,40.00,15,11,29,0.05
2013-3-27,44,30,21,17,8,0,62,41,23,0.00,40.00,15,10,27,0.01
2013-3-28,43,34,27,22,14,7,82,49,24,0.00,40.00,8,5,18,0.00
2013-3-29,42,33,26,18,12,5,65,44,24,0.00,40.00,10,6,29,0.00
2013-3-30,44,33,25,24,14,8,96,49,25,0.00,40.00,12,9,27,0.00
2013-3-31,48,33,21,21,8,-7,92,44,11,0.00,40.00,11,6,22,0.00
2013-4-1,44,32,24,21,12,4,59,43,30,0.00,40.00,10,6,25,0.00
2013-4-2,42,28,18,20,13,7,93,56,27,0.00,40.00,9,4,18,0.00
2013-4-3,36,24,16,26,18,11,90,80,57,0.00,40.00,7,4,16,0.05
2013-4-4,49,34,24,12,8,5,54,36,17,0.00,40.00,11,7,19,0.01
2013-4-5,45,36,29,18,10,4,54,34,18,0.00,40.00,22,12,41,0.00
2013-4-6,44,33,26,22,12,-4,71,45,13,0.00,40.00,20,8,37,0.00
2013-4-7,41,32,26,15,13,7,63,45,26,0.00,40.00,20,12,38,0.00
2013-4-8,45,34,28,19,12,7,63,41,22,0.00,40.00,14,9,36,0.00
2013-4-9,28,16,4,25,12,0,96,84,75,0.00,40.00,11,4,23,0.07
2013-4-10,21,16,12,16,12,6,89,84,72,0.00,40.00,9,5,21,0.11
2013-4-11,34,23,10,17,9,-1,93,58,33,0.00,40.00,14,10,34,0.01
2013-4-12,36,25,17,20,14,10,94,67,38,0.00,40.00,11,5,24,0.01
2013-4-13,42,30,21,18,12,5,89,51,24,0.00,40.00,24,14,46,0.00
2013-4-14,36,29,22,21,16,10,93,59,41,0.00,40.00,24,14,50,0.01
2013-4-15,43,30,15,20,17,12,91,62,32,0.00,40.00,18,11,39,0.01
2013-4-16,39,28,16,20,15,6,90,61,37,0.00,40.00,16,10,33,0.01
2013-4-17,30,18,0,20,10,-5,87,72,35,0.00,40.00,13,7,28,0.00
2013-4-18,14,6,-4,6,-1,-10,78,72,62,0.00,40.00,14,7,28,0.03
2013-4-19,34,21,4,11,3,-7,61,46,31,0.00,40.00,12,9,30,0.19
2013-4-20,41,25,18,20,12,8,89,61,36,0.00,40.00,10,6,20,0.05
2013-4-21,44,30,19,20,11,3,81,50,23,0.00,40.00,13,7,25,0.00
2013-4-22,44,29,11,25,17,4,93,64,31,0.00,40.00,18,10,35,0.00
2013-4-23,20,12,4,16,7,-1,87,79,63,0.00,40.00,10,3,22,0.06
2013-4-24,36,22,8,16,2,-12,77,45,27,0.00,40.00,16,8,36,0.14
2013-4-25,42,30,19,27,15,2,96,56,30,0.00,40.00,15,10,31,0.01
2013-4-26,40,32,26,21,15,7,66,51,34,0.00,40.00,7,4,15,0.01
2013-4-27,49,36,25,17,8,3,67,34,17,0.00,40.00,9,5,23,0.01
2013-4-28,52,41,32,12,8,3,35,25,18,0.00,40.00,9,6,23,0.00
2013-4-29,52,43,35,15,12,7,38,29,18,0.00,40.00,15,10,30,0.00
2013-4-30,53,44,36,26,13,7,66,29,19,0.00,40.00,19,11,37,0.00
2013-5-1,32,20,5,28,17,-1,97,88,71,0.00,40.00,8,5,20,0.01
2013-5-2,23,13,2,16,7,-3,81,76,49,0.00,40.00,11,5,23,0.20
2013-5-3,39,27,18,19,5,-5,59,39,23,0.00,40.00,10,6,22,0.01
2013-5-4,39,29,20,21,14,9,68,56,44,0.00,40.00,8,5,17,0.00
2013-5-5,41,30,20,20,13,8,70,51,32,0.00,40.00,12,6,23,0.00
2013-5-6,38,31,28,29,26,23,97,82,58,0.00,40.00,10,6,23,0.00
2013-5-7,46,33,24,27,22,19,96,68,36,0.00,40.00,16,9,30,0.08
2013-5-8,38,29,24,30,23,16,95,77,46,0.00,40.00,15,6,29,0.17
2013-5-9,30,25,23,26,23,21,95,92,84,0.00,40.00,7,2,18,0.09
2013-5-10,43,30,23,31,26,21,95,84,62,0.00,40.00,6,2,12,0.52
2013-5-11,51,32,26,33,27,23,92,82,42,0.00,40.00,8,4,17,0.31
2013-5-12,54,40,31,24,22,18,75,49,30,0.00,40.00,12,6,26,0.01
2013-5-13,59,46,37,32,24,19,62,43,26,0.00,40.00,8,5,19,0.01
2013-5-14,54,44,36,35,27,22,90,53,31,0.00,40.00,9,5,19,0.09
2013-5-15,53,42,35,35,30,25,96,64,45,0.00,40.00,6,4,13,0.35
2013-5-16,56,41,36,30,6,-100,75,45,27,0.00,40.00,10,6,23,0.07
2013-5-17,56,46,39,20,6,-100,40,24,15,0.00,40.00,12,8,25,0.00
2013-5-18,49,40,32,22,13,-4,65,34,14,0.00,40.00,16,11,30,0.00
2013-5-19,43,33,27,21,17,13,67,52,32,0.00,40.00,14,9,31,0.00
2013-5-20,40,31,26,29,20,12,95,65,46,0.00,40.00,9,5,20,0.07
2013-5-21,47,35,26,26,18,13,92,55,27,0.00,40.00,12,9,28,0.07
2013-5-22,56,42,31,25,20,16,67,43,20,0.00,40.00,8,6,22,0.00
2013-5-23,57,44,30,35,26,17,97,57,25,0.00,40.00,9,6,27,0.00
2013-5-24,58,48,38,31,18,9,77,36,15,0.00,40.00,16,10,46,0.00
2013-5-25,59,49,40,16,9,4,37,21,11,0.00,40.00,18,11,36,0.00
2013-5-26,61,50,41,9,5,2,26,17,10,0.00,40.00,15,10,27,0.00
2013-5-27,60,48,40,15,7,1,32,19,11,0.00,40.00,14,8,34,0.00
2013-5-28,56,47,37,13,7,-5,30,20,12,0.00,40.00,20,8,35,0.00
2013-5-29,48,40,32,23,16,6,61,38,23,0.00,40.00,16,11,35,0.00
2013-5-30,51,38,28,14,10,5,54,34,16,0.00,40.00,24,16,48,0.00
2013-5-31,48,39,32,18,8,-9,46,29,9,0.00,40.00,20,12,48,0.00
2013-6-1,48,38,28,26,14,-2,78,40,22,0.00,40.00,11,6,21,0.00
2013-6-2,64,47,33,23,17,9,66,34,13,0.00,40.00,16,8,33,0.00
2013-6-3,62,49,42,29,23,17,54,37,22,0.00,40.00,17,11,36,0.00
2013-6-4,59,48,44,29,23,18,49,37,22,0.00,40.00,17,9,33,0.00
2013-6-5,62,41,35,38,34,23,99,81,28,0.00,40.00,9,4,27,0.00
2013-6-6,54,45,37,36,30,21,79,57,30,0.00,40.00,6,4,15,0.00
2013-6-7,53,43,35,39,31,29,88,65,42,0.00,40.00,13,4,33,0.15
2013-6-8,61,47,40,42,32,24,89,58,27,0.00,40.00,13,7,29,0.05
2013-6-9,68,53,38,36,27,22,87,41,17,0.00,40.00,8,4,19,0.01
2013-6-10,72,62,51,25,20,12,36,21,10,0.00,40.00,10,6,37,0.01
2013-6-11,68,59,51,20,12,2,24,17,7,0.00,40.00,20,15,47,0.00
2013-6-12,70,59,48,20,14,8,22,17,13,0.00,40.00,11,6,24,0.00
2013-6-13,69,55,50,31,22,10,43,28,15,0.00,40.00,15,8,27,0.00
2013-6-14,65,52,45,38,31,25,70,46,23,0.00,40.00,14,8,27,0.13
2013-6-15,64,53,46,30,20,5,54,29,17,0.00,40.00,10,7,30,0.01
2013-6-16,62,49,42,36,28,24,64,44,28,0.00,40.00,13,6,29,0.01
2013-6-17,59,48,41,38,30,18,84,51,20,0.00,40.00,8,4,17,0.00
2013-6-18,63,48,39,41,34,21,97,61,20,0.00,40.00,12,6,33,0.06
2013-6-19,66,56,44,32,8,-4,58,18,8,0.00,40.00,16,12,30,0.05
2013-6-20,63,52,45,7,1,-4,18,13,8,0.00,40.00,18,14,38,0.00
2013-6-22,63,56,49,14,9,6,21,15,12,0.00,40.00,14,10,29,0.00
2013-6-23,63,52,45,39,22,4,63,33,17,0.00,40.00,11,6,21,0.00
2013-6-24,63,53,44,13,6,1,23,15,9,0.00,40.00,17,11,33,0.00
2013-6-25,69,56,45,22,13,3,29,19,14,0.00,40.00,12,7,29,0.00
2013-6-26,71,60,47,32,25,18,42,27,19,0.00,40.00,7,5,15,0.00
2013-6-27,71,62,54,39,29,22,57,29,21,0.00,40.00,9,5,26,0.00
2013-6-28,66,55,49,41,35,28,62,48,33,0.00,40.00,12,4,26,0.19
2013-6-29,64,52,46,45,36,30,78,55,34,0.00,40.00,8,5,23,0.05
2013-6-30,62,48,42,46,39,32,98,74,47,0.00,40.00,8,4,19,0.21
2013-7-1,55,46,40,43,40,36,97,81,63,0.00,40.00,6,4,14,0.09
2013-7-2,57,46,39,42,37,33,94,74,44,0.00,40.00,8,4,16,0.02
2013-7-3,62,50,40,36,33,28,85,56,28,0.00,40.00,11,4,29,0.01
2013-7-4,65,53,45,34,32,30,62,45,30,0.00,40.00,9,4,19,0.00
2013-7-5,64,54,47,44,37,31,89,55,34,0.00,40.00,8,5,17,0.06
2013-7-6,63,53,45,49,38,34,92,60,36,0.00,40.00,7,4,17,0.45
2013-7-7,61,52,45,47,41,35,92,65,48,0.00,40.00,9,4,22,0.26
2013-7-8,67,55,47,43,39,33,83,56,31,0.00,40.00,8,5,25,0.25
2013-7-9,65,58,52,39,34,31,55,42,31,0.00,40.00,7,5,14,0.01
2013-7-10,65,53,48,51,38,-100,90,62,39,0.00,40.00,8,4,17,0.36
2013-7-11,69,55,48,48,40,36,69,57,30,0.00,40.00,10,4,21,0.11
2013-7-12,70,56,49,46,42,37,78,60,38,0.00,40.00,10,5,21,0.12
2013-7-13,62,54,48,47,44,42,81,68,47,0.00,40.00,7,4,15,0.08
2013-7-14,60,50,45,49,45,42,100,85,58,0.00,40.00,7,4,25,4.00
2013-7-15,46,44,41,46,44,41,100,100,98,0.00,40.00,6,4,15,2.80
2013-7-16,51,47,40,44,42,35,97,83,74,0.00,40.00,6,5,15,0.01
2013-7-17,61,49,39,49,41,34,92,74,56,0.00,40.00,6,3,12,0.00
2013-7-18,65,57,46,47,42,38,83,58,38,0.00,40.00,7,5,19,0.00
2013-7-19,62,52,45,48,43,38,96,72,56,0.00,40.00,7,4,14,0.13
2013-7-20,65,52,44,46,38,-100,97,65,39,0.00,40.00,7,4,15,0.14
2013-7-21,68,55,44,45,36,22,99,57,18,0.00,40.00,7,4,16,0.00
2013-7-22,66,57,51,35,31,26,54,37,26,0.00,40.00,8,4,17,0.00
2013-7-23,70,59,52,41,29,20,66,35,15,0.00,40.00,7,4,17,0.00
2013-7-24,60,52,45,49,40,30,97,66,42,0.00,40.00,10,4,22,0.00
2013-7-25,58,49,44,48,42,38,96,77,55,0.00,40.00,15,6,29,0.12
2013-7-26,61,48,41,48,42,34,95,79,56,0.00,40.00,7,4,13,0.44
2013-7-27,64,51,44,43,39,31,91,66,29,0.00,40.00,9,5,17,0.19
2013-7-28,55,47,42,48,43,40,99,89,69,0.00,40.00,13,6,26,0.10
2013-7-29,59,48,43,47,41,35,99,79,45,0.00,40.00,9,5,18,0.01
2013-7-30,64,52,43,42,35,28,96,56,30,0.00,40.00,12,7,28,0.00
2013-7-31,63,53,46,47,39,27,84,59,41,0.00,40.00,6,3,12,0.00
2013-8-1,64,52,46,45,42,38,92,70,40,0.00,40.00,15,7,30,0.05
2013-8-2,67,53,46,44,38,34,91,58,33,0.00,40.00,11,7,25,0.01
2013-8-3,60,52,46,48,42,37,96,72,51,0.00,40.00,5,3,12,0.03
2013-8-4,63,50,42,47,42,36,98,75,42,0.00,40.00,7,4,21,1.14
2013-8-5,63,50,43,45,41,37,97,72,48,0.00,40.00,9,5,19,1.67
2013-8-6,60,49,43,43,39,34,96,70,41,0.00,40.00,9,5,21,0.28
2013-8-7,56,44,39,48,41,38,97,88,75,0.00,40.00,6,3,23,0.95
2013-8-8,45,41,38,43,38,33,97,90,79,0.00,40.00,9,4,17,0.34
2013-8-9,52,43,36,43,38,28,98,82,60,0.00,40.00,7,4,16,0.02
2013-8-10,61,48,40,44,35,30,98,63,32,0.00,40.00,9,5,19,0.01
2013-8-11,57,46,39,45,36,28,84,68,53,0.00,40.00,9,4,17,0.01
2013-8-21,61,53,47,43,37,29,85,55,39,0.00,40.00,7,4,15,0.23
2013-8-22,64,53,48,49,41,34,87,64,50,0.00,40.00,8,4,17,0.04
2013-8-23,68,54,44,44,38,29,95,59,32,0.00,40.00,11,5,19,0.01
2013-8-24,64,52,44,42,39,37,82,62,42,0.00,40.00,9,6,17,0.00
2013-8-25,62,51,45,44,42,39,90,72,48,0.00,40.00,13,9,26,0.00
2013-8-26,67,55,46,45,41,37,89,63,34,0.00,40.00,13,7,23,0.00
2013-8-27,64,54,49,46,41,38,73,63,50,0.00,40.00,7,4,17,0.00
2013-8-28,65,60,52,41,33,20,45,37,28,0.00,40.00,6,4,13,0.00
2013-8-29,68,58,50,39,31,22,48,37,26,0.00,40.00,6,3,14,0.00
2013-8-30,69,58,49,38,34,29,59,40,30,0.00,40.00,6,4,15,0.00
2013-8-31,65,54,48,47,37,30,82,55,37,0.00,40.00,8,3,22,0.17
2013-9-1,57,49,46,49,44,39,98,83,58,0.00,40.00,6,3,11,0.17
2013-9-2,61,51,44,49,44,40,98,78,49,0.00,40.00,7,3,14,0.06
2013-9-3,63,54,50,44,40,37,73,59,48,0.00,40.00,8,3,14,0.01
2013-9-4,67,56,50,46,40,38,69,56,42,0.00,40.00,7,3,13,0.00
2013-9-5,69,57,48,39,35,31,71,45,29,0.00,40.00,7,4,16,0.00
2013-9-6,68,58,50,36,31,28,46,37,26,0.00,40.00,6,4,16,0.00
2013-9-7,70,57,50,40,32,28,51,40,31,0.00,40.00,7,4,16,0.00
2013-9-18,44,43,39,41,38,33,94,82,72,0.00,40.00,16,12,35,0.01
2013-9-19,52,43,37,40,35,29,98,75,53,0.00,40.00,12,6,30,0.06
2013-9-20,57,43,34,37,34,25,99,73,42,0.00,40.00,8,5,15,0.00
2013-9-21,60,48,40,33,29,26,71,50,31,0.00,40.00,11,6,21,0.00
2013-9-22,53,42,29,42,34,25,97,74,41,0.00,40.00,18,9,42,0.18
2013-9-23,43,33,27,29,23,6,96,71,30,0.00,40.00,16,6,35,0.09
2013-9-24,57,49,34,19,12,4,38,24,13,0.00,40.00,13,8,26,0.00
2013-9-25,55,46,38,25,20,14,45,36,28,0.00,40.00,26,16,54,0.01
2013-9-26,55,46,39,21,14,7,42,28,16,0.00,40.00,26,13,49,0.01
2013-9-27,44,35,22,34,25,10,96,69,42,0.00,40.00,20,15,44,0.10
2013-9-28,53,34,21,16,8,-3,66,36,16,0.00,40.00,16,8,34,0.01
2013-9-29,57,43,32,16,10,3,48,28,12,0.00,40.00,13,8,28,0.00
2013-9-30,63,50,40,26,20,9,40,30,24,0.00,40.00,13,6,28,0.00
2013-10-3,56,44,37,18,13,6,44,29,19,0.00,40.00,15,10,36,0.00
2013-10-4,38,30,17,23,6,-9,84,41,14,0.00,40.00,21,10,42,0.00
2013-10-5,41,25,13,10,-2,-20,80,37,9,0.00,40.00,13,8,30,0.00
2013-10-6,52,40,29,14,3,-26,30,22,7,0.00,40.00,9,4,17,0.00
2013-10-7,61,46,35,14,10,3,36,25,12,0.00,40.00,9,4,17,0.00
2013-10-8,52,43,38,16,11,6,39,28,19,0.00,40.00,17,12,35,0.00
2013-10-9,53,41,34,21,16,9,53,37,17,0.00,40.00,19,8,41,0.00
2013-10-17,40,29,18,16,7,-5,91,44,20,0.00,40.00,11,5,23,0.04
2013-10-18,27,20,13,16,9,0,89,64,42,0.00,40.00,13,8,29,0.11
2013-10-19,40,30,20,10,5,-1,40,33,25,0.00,40.00,13,8,27,0.02
2013-10-20,42,29,21,22,10,-3,95,51,21,0.00,40.00,8,5,21,0.01
2013-10-21,38,27,18,18,12,0,91,59,21,0.00,40.00,10,6,20,0.00
2013-10-22,49,35,25,21,12,8,54,40,25,0.00,40.00,10,6,19,0.00
2013-10-23,49,39,32,20,12,0,46,34,18,0.00,40.00,10,4,16,0.00
2013-10-24,49,36,33,20,14,10,55,40,24,0.00,40.00,8,5,16,0.00
2013-10-25,43,35,29,22,20,16,75,55,37,0.00,40.00,9,4,19,0.00
2013-10-26,41,32,25,24,21,16,89,64,41,0.00,40.00,6,4,15,0.00
2013-10-27,44,34,27,19,17,13,69,50,30,0.00,40.00,11,7,24,0.00
2013-10-28,38,32,29,22,17,-100,71,57,43,0.00,40.00,15,11,31,0.00
2013-10-29,36,30,25,25,15,9,94,54,33,0.00,40.00,19,14,40,0.00
2013-10-30,28,21,16,24,15,8,94,76,57,0.00,40.00,15,10,35,0.06
2013-10-31,36,23,14,10,6,3,75,51,28,0.00,40.00,13,9,31,0.06
2013-11-1,32,24,18,15,8,0,68,51,35,0.00,40.00,11,9,31,0.00
2013-11-2,49,41,27,6,-3,-13,32,17,8,0.00,40.00,16,11,28,0.00
2013-11-3,38,31,25,17,10,1,62,41,23,0.00,40.00,21,16,47,0.00
2013-11-4,35,26,21,22,9,-2,93,51,31,0.00,40.00,17,10,37,0.00
2013-11-5,25,18,7,24,16,1,94,89,76,0.00,40.00,11,6,24,0.00
2013-11-6,29,20,8,9,1,-7,63,43,35,0.00,40.00,14,11,33,0.07
2013-11-7,44,33,24,12,8,0,49,36,25,0.00,40.00,16,8,28,0.14
2013-11-8,44,35,29,8,5,2,34,28,20,0.00,40.00,22,15,42,0.01
2013-11-9,47,37,31,13,8,4,45,30,20,0.00,40.00,8,4,14,0.00
2013-11-10,44,37,31,11,9,6,42,32,22,0.00,40.00,13,7,24,0.00
2013-11-11,42,34,29,11,6,-4,42,31,20,0.00,40.00,9,6,20,0.00
2013-11-12,41,35,28,16,10,-2,45,35,24,0.00,40.00,6,4,13,0.00
2013-11-13,44,34,27,8,2,-3,38,27,17,0.00,40.00,9,6,18,0.00
2013-11-14,40,29,25,17,12,3,72,51,32,0.00,40.00,12,6,28,0.00
2013-11-15,34,26,21,24,13,2,96,61,36,0.00,40.00,20,14,41,0.00
2013-11-16,26,22,17,23,16,12,96,81,59,0.00,40.00,25,18,59,0.01
2013-11-17,39,26,19,16,10,6,88,54,28,0.00,40.00,34,15,62,0.01
2013-11-18,44,34,23,11,-1,-13,59,25,10,0.00,40.00,9,3,18,0.00
2013-11-19,39,31,25,16,6,-9,65,38,18,0.00,40.00,14,8,30,0.00
2013-11-20,35,27,23,21,14,10,88,59,43,0.00,40.00,18,7,31,0.00
2013-11-21,23,22,21,22,21,20,96,94,89,0.00,40.00,6,3,14,0.00
2013-11-22,21,16,9,20,13,6,94,90,87,0.00,40.00,7,4,12,0.01
2013-11-23,22,15,10,20,13,7,95,90,87,0.00,40.00,5,3,9,0.01
2013-11-24,29,22,16,27,20,14,95,94,91,0.00,40.00,3,2,11,0.08
2013-11-25,16,14,12,14,12,9,91,90,89,0.00,40.00,8,4,23,0.02
2013-11-26,24,16,12,21,13,9,90,88,83,0.00,40.00,9,4,20,0.00
2013-11-27,40,25,17,18,11,7,81,57,33,0.00,40.00,8,4,18,0.05
2013-11-28,41,28,22,13,8,3,57,43,29,0.00,40.00,12,6,27,0.16
2013-11-29,34,26,20,10,3,-1,58,37,23,0.00,40.00,14,10,27,0.03
2013-11-30,36,26,21,5,2,-2,50,36,23,0.00,40.00,13,9,24,0.00
2013-12-1,32,25,19,12,5,-1,64,44,28,0.00,40.00,18,11,39,0.00
2013-12-2,33,27,22,13,10,6,69,50,38,0.00,40.00,25,19,53,0.01
2013-12-3,30,25,20,19,11,7,90,57,45,0.00,40.00,25,16,45,0.01
2013-12-12,43,31,23,-8,-13,-21,25,15,7,0.00,40.00,9,5,17,0.00
2013-12-13,30,21,12,5,0,-4,66,40,25,0.00,40.00,12,6,28,0.00
2013-12-14,24,16,6,6,-2,-8,86,50,24,0.00,40.00,12,8,27,0.00
2013-12-15,36,28,21,9,1,-10,54,34,17,0.00,40.00,12,8,36,0.00
2013-12-16,39,30,25,5,1,-10,38,28,17,0.00,40.00,14,8,32,0.00
2013-12-17,42,35,30,3,-2,-10,28,20,15,0.00,40.00,9,7,21,0.00
2013-12-18,41,33,29,8,0,-5,38,25,15,0.00,40.00,16,9,29,0.00
2013-12-19,32,26,17,11,8,5,76,46,35,0.00,40.00,18,9,36,0.00
2013-12-20,22,16,13,15,12,8,91,81,68,0.00,40.00,13,11,32,0.00
2013-12-21,23,13,4,9,3,-5,91,69,32,0.00,40.00,7,4,16,0.00
2013-12-22,17,8,1,1,-3,-6,84,61,37,0.00,40.00,14,9,32,0.00
2013-12-23,26,15,7,10,-1,-8,64,49,24,0.00,40.00,14,10,31,0.02
2013-12-24,28,21,8,15,9,-2,86,62,46,0.00,40.00,21,14,43,0.02
2013-12-25,25,21,12,-5,-8,-15,32,26,23,0.00,40.00,10,7,22,0.00
2013-12-26,34,25,20,6,1,-12,55,35,18,0.00,40.00,11,6,28,0.00
2013-12-28,35,25,11,13,7,-7,90,51,22,0.00,40.00,10,6,22,0.00
2013-12-29,21,12,5,14,4,-8,86,73,35,0.00,40.00,13,4,22,0.06
2013-12-30,27,20,15,6,0,-7,56,41,23,0.00,40.00,12,8,30,0.03
2013-12-31,33,24,19,12,4,-3,71,43,32,0.00,40.00,18,12,38,0.00
2014-1-1,23,17,9,14,8,-3,90,68,41,0.00,40.00,20,11,41,0.02
2014-1-2,37,27,19,9,2,-11,50,34,22,0.00,40.00,13,9,35,0.02